FW7665 Weather Reports


Display with metric or nautical units.
time (UTC)temp
F
wind
direction
speed
MPH
gust
MPH
rain 1hr
in
rain 24hr
in
rain mn
in
humidity
%
barometer
mb
20260831141805 51 0 0.0 0.0 0.00 0.03 0.00 85 1027.4
20260831140905 50 0 0.0 0.0 0.00 0.03 0.00 85 1026.4
20260831140006 50 0 0.0 0.0 0.00 0.03 0.00 85 1026.4
20260831135405 49 0 0.0 0.0 0.00 0.03 0.00 85 1026.4
20260831134506 49 0 0.0 0.0 0.00 0.03 0.00 86 1026.4
20260831133605 49 0 0.0 0.0 0.00 0.03 0.00 85 1026.4
20260831132705 49 0 0.0 0.0 0.00 0.03 0.00 84 1026.1
20260831131805 49 0 0.0 0.0 0.00 0.03 0.00 84 1026.1
20260831130926 49 0 0.0 0.0 0.00 0.03 0.00 84 1026.1
20260831130005 48 0 0.0 0.0 0.00 0.03 0.00 83 1026.1
20260831125405 48 0 0.0 0.0 0.00 0.03 0.00 83 1026.1
20260831124507 49 0 0.0 0.0 0.00 0.03 0.00 84 1026.1
20260831123605 48 0 0.0 0.0 0.00 0.03 0.00 83 1026.1
20260831122705 48 0 0.0 0.0 0.00 0.03 0.00 83 1025.6
20260831121805 48 0 0.0 0.0 0.00 0.03 0.00 83 1025.6
20260831120905 48 0 0.0 0.0 0.00 0.03 0.00 83 1025.6
20260831120005 48 0 0.0 0.0 0.00 0.03 0.00 84 1025.6
20260831115405 48 0 0.0 0.0 0.00 0.03 0.00 83 1025.6
20260831114505 48 0 0.0 0.0 0.00 0.03 0.00 83 1025.6
20260831113605 48 0 0.0 0.0 0.00 0.03 0.00 83 1025.6
20260831112705 48 0 0.0 0.0 0.00 0.03 0.00 83 1025.6
20260831111805 48 0 0.0 0.0 0.00 0.03 0.00 83 1025.2
20260831110905 48 0 0.0 0.0 0.00 0.03 0.00 83 1025.2
20260831110005 48 0 0.0 0.0 0.00 0.03 0.00 83 1025.2
20260831105405 48 0 0.0 0.0 0.00 0.03 0.00 83 1025.2
20260831104505 48 0 0.0 0.0 0.00 0.03 0.00 83 1025.2
20260831103605 48 0 0.0 0.0 0.00 0.03 0.00 82 1025.2
20260831102705 48 0 0.0 0.0 0.00 0.03 0.00 82 1025.2
20260831101805 48 0 0.0 0.0 0.00 0.03 0.00 82 1025.2
20260831100926 48 259 0.0 3.0 0.00 0.03 0.00 82 1025.2
20260831100020 48 0 0.0 0.0 0.00 0.03 0.00 81 1025.2
20260831095405 48 0 0.0 0.0 0.00 0.03 0.00 82 1024.9
20260831094505 48 0 0.0 0.0 0.00 0.03 0.00 82 1024.9
20260831093604 48 0 0.0 0.0 0.00 0.03 0.00 82 1024.9
20260831092704 49 0 0.0 0.0 0.00 0.03 0.00 83 1024.9
20260831091804 49 0 0.0 0.0 0.00 0.03 0.00 82 1024.9
20260831090906 49 0 0.0 0.0 0.00 0.03 0.00 82 1024.9
20260831090005 49 0 0.0 0.0 0.00 0.03 0.00 83 1025.2
20260831085404 49 0 0.0 0.0 0.00 0.03 0.00 83 1025.2
20260831084505 49 0 0.0 0.0 0.00 0.03 0.00 82 1025.2
20260831083604 49 0 0.0 0.0 0.00 0.03 0.00 82 1025.2
20260831082725 49 0 0.0 0.0 0.00 0.03 0.00 81 1025.2
20260831081825 50 0 0.0 0.0 0.00 0.03 0.00 82 1025.2
20260831080904 50 0 0.0 0.0 0.00 0.03 0.00 82 1025.2
20260831080005 50 0 0.0 0.0 0.00 0.03 0.00 81 1025.6
20260831075425 50 0 0.0 0.0 0.00 0.03 0.00 81 1025.6
20260831074504 50 0 0.0 0.0 0.00 0.03 0.00 81 1025.6
20260831073604 50 0 0.0 0.0 0.00 0.03 0.00 80 1025.6
20260831072704 50 0 0.0 0.0 0.00 0.03 0.00 82 1025.6
20260831071804 50 0 0.0 0.0 0.00 0.03 0.00 81 1026.0
20260831070904 50 0 0.0 0.0 0.00 0.03 0.00 80 1026.0
20260831070005 51 0 0.0 0.0 0.00 0.03 0.00 80 1026.0
20260831065404 51 0 0.0 0.0 0.00 0.03 0.00 80 1026.0
20260831064504 51 0 0.0 0.0 0.00 0.03 0.00 79 1026.0
20260831063604 51 0 0.0 0.0 0.00 0.03 0.00 79 1026.0
20260831062704 51 0 0.0 0.0 0.00 0.03 0.00 79 1026.0
20260831061804 51 0 0.0 0.0 0.00 0.03 0.00 79 1026.7
20260831060904 51 0 0.0 0.0 0.00 0.03 0.00 79 1026.7
20260831060014 52 0 0.0 0.0 0.00 0.03 0.00 78 1026.7
20260831055425 52 0 0.0 0.0 0.00 0.03 0.03 77 1026.7
20260831054504 52 0 0.0 0.0 0.00 0.03 0.03 78 1026.7
20260831053604 52 0 0.0 0.0 0.00 0.03 0.03 78 1026.7
20260831052704 53 0 0.0 0.0 0.00 0.03 0.03 77 1026.7
20260831051803 53 0 0.0 0.0 0.00 0.03 0.03 77 1027.4
20260831050904 53 0 0.0 0.0 0.00 0.03 0.03 78 1027.4
20260831050004 53 0 0.0 0.0 0.00 0.03 0.03 77 1027.4
20260831045403 53 0 0.0 0.0 0.00 0.03 0.03 76 1027.4
20260831044503 53 0 0.0 0.0 0.00 0.03 0.03 76 1027.4
20260831043603 53 0 0.0 0.0 0.00 0.03 0.03 74 1027.4
20260831042703 53 0 0.0 0.0 0.00 0.03 0.03 77 1027.4
20260831041804 53 0 0.0 0.0 0.00 0.03 0.03 78 1026.2
20260831040903 53 0 0.0 0.0 0.00 0.03 0.03 77 1026.2
20260831040004 53 0 0.0 0.0 0.00 0.03 0.03 77 1026.2
20260831035425 53 0 0.0 0.0 0.00 0.03 0.03 78 1026.2
20260831034503 53 0 0.0 0.0 0.00 0.03 0.03 77 1026.2
20260831033608 53 0 0.0 0.0 0.00 0.03 0.03 76 1026.2
20260831032709 53 0 0.0 0.0 0.00 0.03 0.03 76 1026.2
20260831031808 53 0 0.0 0.0 0.00 0.03 0.03 76 1025.5
20260831030908 53 0 0.0 0.0 0.00 0.03 0.03 75 1025.5
20260831030008 54 0 0.0 0.0 0.00 0.03 0.03 74 1025.5
20260831025408 54 0 0.0 0.0 0.00 0.03 0.03 71 1025.5
20260831024508 54 0 0.0 0.0 0.00 0.03 0.03 72 1025.5
20260831023629 54 0 0.0 0.0 0.00 0.03 0.03 71 1025.5
20260831022729 54 0 0.0 0.0 0.00 0.03 0.03 73 1025.5
20260831021808 54 0 0.0 0.0 0.00 0.03 0.03 72 1025.0
20260831020908 55 0 0.0 0.0 0.00 0.03 0.03 70 1025.0
20260831020029 55 0 0.0 0.0 0.00 0.03 0.03 71 1025.0
20260831015408 56 0 0.0 0.0 0.00 0.03 0.03 69 1025.0
20260831014508 56 0 0.0 0.0 0.00 0.03 0.03 72 1025.0
20260831013608 57 0 0.0 0.0 0.00 0.03 0.03 72 1025.0
20260831012708 57 0 0.0 0.0 0.00 0.03 0.03 70 1025.0
20260831011829 58 0 0.0 0.0 0.00 0.03 0.03 71 1023.9
20260831010908 59 0 0.0 0.0 0.00 0.03 0.03 70 1023.9
20260831010008 59 0 0.0 0.0 0.00 0.03 0.03 67 1023.9
20260831005409 60 0 0.0 0.0 0.00 0.03 0.03 66 1023.9
20260831004508 61 279 0.0 1.0 0.00 0.03 0.03 62 1023.9
20260831003608 62 280 1.0 4.0 0.00 0.03 0.03 56 1023.9
20260831002708 62 282 0.0 4.0 0.00 0.03 0.03 58 1023.9
20260831001829 62 277 1.0 4.0 0.00 0.03 0.03 52 1023.9
20260831000908 61 294 0.0 3.0 0.00 0.03 0.03 60 1023.9
20260831000012 61 295 1.0 3.0 0.00 0.03 0.03 57 1023.9
20260830235408 61 300 0.0 2.0 0.00 0.03 0.03 62 1023.9
20260830234507 62 337 0.0 2.0 0.00 0.03 0.03 57 1023.9
20260830233608 63 4 1.0 11.0 0.00 0.03 0.03 51 1023.9
20260830232708 63 174 2.0 8.0 0.00 0.03 0.03 51 1023.9
20260830231829 63 304 1.0 3.0 0.00 0.03 0.03 53 1023.9
20260830230907 64 264 2.0 4.0 0.00 0.03 0.03 49 1023.9
20260830230007 65 339 2.0 9.0 0.00 0.03 0.03 48 1023.9
20260830225407 65 70 2.0 6.0 0.00 0.03 0.03 50 1023.9
20260830224507 65 288 2.0 8.0 0.00 0.03 0.03 50 1023.9
20260830223607 65 263 3.0 8.0 0.00 0.03 0.03 47 1023.9
20260830222707 65 258 3.0 8.0 0.00 0.03 0.03 49 1023.9
20260830221807 64 267 2.0 7.0 0.00 0.03 0.03 50 1023.9
20260830220907 63 240 3.0 8.0 0.00 0.03 0.03 49 1023.9
20260830220011 63 256 2.0 5.0 0.00 0.03 0.03 53 1023.9
20260830215407 63 283 2.0 9.0 0.00 0.03 0.03 55 1023.9
20260830214528 63 294 3.0 9.0 0.00 0.03 0.03 54 1023.9
20260830213607 63 254 2.0 9.0 0.00 0.03 0.03 55 1023.9
20260830212709 64 244 3.0 8.0 0.00 0.03 0.03 54 1023.9
20260830211807 63 75 1.0 8.0 0.00 0.03 0.03 61 1023.9
20260830210907 63 359 1.0 4.0 0.00 0.03 0.03 59 1023.9
20260830210028 61 269 1.0 7.0 0.02 0.03 0.03 73 1023.9
20260830205428 60 252 2.0 7.0 0.03 0.03 0.03 67 1023.9
20260830204507 57 274 0.0 6.0 0.03 0.03 0.03 78 1023.9
20260830203607 55 251 1.0 6.0 0.03 0.03 0.03 81 1023.9
20260830202728 55 237 1.0 4.0 0.03 0.03 0.03 83 1023.9
20260830201807 55 116 0.0 4.0 0.03 0.03 0.03 86 1023.9
20260830200907 55 239 1.0 6.0 0.03 0.03 0.03 82 1023.9
20260830200007 61 264 4.0 14.0 0.01 0.01 0.02 64 1023.9
20260830195406 67 249 2.0 10.0 0.00 0.00 0.00 49 1023.9
20260830194506 68 200 1.0 4.0 0.00 0.00 0.00 51 1023.9
20260830193607 65 268 1.0 4.0 0.00 0.00 0.00 58 1023.9
20260830192709 65 282 2.0 6.0 0.00 0.00 0.00 58 1023.9
20260830191806 65 282 2.0 6.0 0.00 0.00 0.00 57 1023.9
20260830190906 66 304 2.0 6.0 0.00 0.00 0.00 50 1023.9
20260830190007 67 358 2.0 6.0 0.00 0.00 0.00 48 1023.9
20260830185406 67 356 2.0 7.0 0.00 0.00 0.00 45 1023.9
20260830184507 68 36 2.0 5.0 0.00 0.00 0.00 42 1023.9
20260830183607 69 85 2.0 7.0 0.00 0.00 0.00 48 1023.9
20260830182707 69 107 2.0 7.0 0.00 0.00 0.00 47 1023.9
20260830181806 70 100 3.0 7.0 0.00 0.00 0.00 43 1023.9
20260830180907 69 86 2.0 6.0 0.00 0.00 0.00 39 1023.9
20260830180007 70 94 3.0 9.0 0.00 0.00 0.00 44 1023.9
20260830175406 71 84 2.0 8.0 0.00 0.00 0.00 39 1023.9
20260830174506 71 119 4.0 10.0 0.00 0.00 0.00 41 1023.9
20260830173607 70 81 3.0 10.0 0.00 0.00 0.00 42 1023.9
20260830172707 70 74 2.0 7.0 0.00 0.00 0.00 44 1023.9
20260830171806 71 57 3.0 12.0 0.00 0.00 0.00 40 1024.6
20260830170927 71 112 3.0 8.0 0.00 0.00 0.00 44 1024.6
20260830170006 70 57 2.0 5.0 0.00 0.00 0.00 44 1024.6
20260830165406 70 115 2.0 4.0 0.00 0.00 0.00 44 1024.6
20260830164527 69 138 1.0 3.0 0.00 0.00 0.00 48 1024.6
20260830163627 68 112 2.0 4.0 0.00 0.00 0.00 49 1024.6
20260830162727 67 127 3.0 7.0 0.00 0.00 0.00 53 1024.6
20260830161807 66 83 2.0 7.0 0.00 0.00 0.00 53 1024.6
20260830160906 65 94 2.0 7.0 0.00 0.00 0.00 57 1024.6
20260830160006 63 127 2.0 7.0 0.00 0.00 0.00 58 1024.6
20260830155406 62 124 1.0 4.0 0.00 0.00 0.00 63 1024.6
20260830154506 60 103 1.0 4.0 0.00 0.00 0.00 71 1024.6
20260830153606 57 0 0.0 0.0 0.00 0.00 0.00 78 1024.6
20260830152705 56 229 0.0 2.0 0.00 0.00 0.00 78 1024.6
20260830151806 55 228 0.0 3.0 0.00 0.00 0.00 79 1024.7
20260830150906 54 215 1.0 7.0 0.00 0.00 0.00 79 1024.7
20260830150006 53 0 0.0 0.0 0.00 0.00 0.00 87 1024.7
20260830145406 53 0 0.0 0.0 0.00 0.00 0.00 87 1024.7
20260830144506 52 0 0.0 0.0 0.00 0.00 0.00 87 1024.7
20260830143606 52 0 0.0 0.0 0.00 0.00 0.00 87 1024.7
20260830142706 52 0 0.0 0.0 0.00 0.00 0.00 86 1024.7